FDX791 KMEM-KLBB

Flight info

Callsign FDX791
Flight time 1h 51m
Altitude 32000
Route CHLDR5 ANSWA LIT ADM GTH
Aircraft A306/H-SDE3FGHIRWY/LB1

Departure

Time 2026-05-07 04:22
Airport Memphis International Airport (KMEM)

Arrival

Time 2026-05-07 06:14
Airport Lubbock Preston Smith International Airport (KLBB)
Time Latitude Longitude Altitude Speed Heading
2026-05-07 04:05 35.05972 -89.95707 337 ft 0 kts 181°
2026-05-07 04:10 35.05976 -89.95707 337 ft 3 kts 181°
2026-05-07 04:10 35.06001 -89.95707 337 ft 4 kts 188°
2026-05-07 04:11 35.06021 -89.95696 337 ft 4 kts 240°
2026-05-07 04:11 35.06028 -89.95668 337 ft 3 kts 267°
2026-05-07 04:11 35.06028 -89.95664 337 ft 0 kts 268°
2026-05-07 04:13 35.06028 -89.95693 332 ft 3 kts 270°
2026-05-07 04:13 35.06028 -89.95724 337 ft 6 kts 271°
2026-05-07 04:13 35.06031 -89.95817 337 ft 16 kts 272°
2026-05-07 04:14 35.06035 -89.95983 333 ft 24 kts 272°
2026-05-07 04:14 35.06042 -89.96201 337 ft 27 kts 272°
2026-05-07 04:14 35.06047 -89.96427 334 ft 25 kts 265°
2026-05-07 04:14 35.05942 -89.96564 333 ft 21 kts 229°
2026-05-07 04:15 35.05921 -89.96729 336 ft 19 kts 272°
2026-05-07 04:15 35.05925 -89.96894 336 ft 21 kts 272°
2026-05-07 04:15 35.05931 -89.97083 336 ft 24 kts 272°
2026-05-07 04:15 35.05937 -89.97296 333 ft 26 kts 271°
2026-05-07 04:16 35.05951 -89.97525 333 ft 28 kts 283°
2026-05-07 04:16 35.05999 -89.97765 335 ft 30 kts 282°
2026-05-07 04:16 35.06013 -89.98027 335 ft 32 kts 272°
2026-05-07 04:16 35.06021 -89.98303 332 ft 32 kts 272°
2026-05-07 04:17 35.05997 -89.98494 333 ft 18 kts 214°
2026-05-07 04:17 35.05876 -89.98505 330 ft 18 kts 179°
2026-05-07 04:17 35.05746 -89.98506 331 ft 19 kts 180°
2026-05-07 04:17 35.05601 -89.98510 334 ft 24 kts 181°
2026-05-07 04:18 35.05420 -89.98510 333 ft 29 kts 180°
2026-05-07 04:18 35.05199 -89.98512 333 ft 34 kts 180°
2026-05-07 04:18 35.04953 -89.98513 337 ft 38 kts 180°
2026-05-07 04:18 35.04677 -89.98508 334 ft 41 kts 179°
2026-05-07 04:19 35.04378 -89.98501 334 ft 44 kts 179°
2026-05-07 04:19 35.04066 -89.98495 334 ft 44 kts 179°
2026-05-07 04:19 35.03770 -89.98488 333 ft 41 kts 180°
2026-05-07 04:19 35.03495 -89.98479 333 ft 38 kts 178°
2026-05-07 04:20 35.03236 -89.98471 337 ft 36 kts 178°
2026-05-07 04:20 35.02996 -89.98467 334 ft 33 kts 179°
2026-05-07 04:20 35.02772 -89.98463 333 ft 31 kts 179°
2026-05-07 04:21 35.02440 -89.98462 334 ft 8 kts 199°
2026-05-07 04:21 35.02415 -89.98486 333 ft 10 kts 233°
2026-05-07 04:21 35.02405 -89.98631 334 ft 23 kts 273°
2026-05-07 04:21 35.02494 -89.98694 336 ft 19 kts
2026-05-07 04:22 35.02673 -89.98696 331 ft 53 kts 359°
2026-05-07 04:22 35.03302 -89.98710 336 ft 125 kts 359°
2026-05-07 04:22 35.04400 -89.98740 455 ft 183 kts 358°
2026-05-07 04:22 35.05775 -89.98821 1244 ft 207 kts 358°
2026-05-07 04:23 35.07243 -89.98988 2259 ft 217 kts 349°
2026-05-07 04:23 35.08720 -89.99703 2671 ft 242 kts 334°
2026-05-07 04:23 35.10218 -90.00763 3376 ft 251 kts 332°
2026-05-07 04:23 35.11723 -90.01869 4232 ft 254 kts 332°
2026-05-07 04:24 35.13157 -90.03107 5089 ft 259 kts 319°
2026-05-07 04:24 35.14189 -90.04924 5968 ft 265 kts 293°
2026-05-07 04:24 35.14532 -90.07148 6927 ft 268 kts 276°
2026-05-07 04:24 35.14607 -90.09427 7882 ft 269 kts 273°
2026-05-07 04:25 35.14649 -90.11715 8813 ft 269 kts 272°
2026-05-07 04:25 35.14537 -90.14007 9706 ft 272 kts 259°
2026-05-07 04:25 35.13896 -90.16184 10558 ft 276 kts 248°
2026-05-07 04:25 35.13046 -90.18359 10997 ft 292 kts 246°
2026-05-07 04:26 35.12122 -90.20641 11346 ft 308 kts 245°
2026-05-07 04:26 35.11150 -90.23041 11682 ft 323 kts 245°
2026-05-07 04:26 35.10122 -90.25538 12064 ft 333 kts 244°
2026-05-07 04:26 35.09066 -90.28078 12666 ft 336 kts 244°
2026-05-07 04:27 35.08013 -90.30621 13449 ft 335 kts 244°
2026-05-07 04:27 35.06965 -90.33158 14166 ft 334 kts 244°
2026-05-07 04:27 35.05915 -90.35695 14809 ft 336 kts 244°
2026-05-07 04:27 35.04863 -90.38235 15421 ft 337 kts 244°
2026-05-07 04:28 35.03804 -90.40802 16002 ft 340 kts 244°
2026-05-07 04:28 35.02736 -90.43383 16672 ft 340 kts 244°
2026-05-07 04:28 35.01668 -90.45962 17316 ft 341 kts 244°
2026-05-07 04:28 35.00608 -90.48518 17889 ft 342 kts 244°
2026-05-07 04:29 34.99529 -90.51118 18449 ft 344 kts 244°
2026-05-07 04:29 34.98446 -90.53728 18955 ft 346 kts 244°
2026-05-07 04:29 34.97351 -90.56358 19420 ft 349 kts 244°
2026-05-07 04:29 34.96247 -90.59015 19894 ft 351 kts 244°
2026-05-07 04:30 34.95137 -90.61685 20341 ft 354 kts 244°
2026-05-07 04:30 34.94020 -90.64367 20772 ft 356 kts 244°
2026-05-07 04:30 34.92894 -90.67071 21215 ft 358 kts 244°
2026-05-07 04:30 34.91762 -90.69787 21629 ft 360 kts 244°
2026-05-07 04:31 34.90722 -90.72567 22007 ft 362 kts 250°
2026-05-07 04:31 34.90043 -90.75523 22419 ft 364 kts 256°
2026-05-07 04:31 34.89557 -90.78565 22790 ft 367 kts 258°
2026-05-07 04:31 34.89099 -90.81628 23156 ft 369 kts 258°
2026-05-07 04:32 34.88638 -90.84702 23536 ft 370 kts 258°
2026-05-07 04:32 34.88178 -90.87755 23886 ft 372 kts 258°
2026-05-07 04:32 34.87705 -90.90870 24199 ft 374 kts 258°
2026-05-07 04:32 34.87229 -90.93992 24537 ft 376 kts 258°
2026-05-07 04:33 34.86750 -90.97126 24911 ft 377 kts 258°
2026-05-07 04:33 34.86265 -91.00276 25234 ft 378 kts 258°
2026-05-07 04:33 34.85780 -91.03426 25571 ft 379 kts 258°
2026-05-07 04:33 34.85291 -91.06589 25872 ft 381 kts 258°
2026-05-07 04:34 34.84799 -91.09767 26166 ft 382 kts 258°
2026-05-07 04:34 34.84304 -91.12953 26458 ft 384 kts 258°
2026-05-07 04:34 34.83807 -91.16146 26745 ft 385 kts 258°
2026-05-07 04:34 34.83310 -91.19349 27037 ft 385 kts 257°
2026-05-07 04:35 34.82809 -91.22563 27301 ft 387 kts 257°
2026-05-07 04:35 34.82305 -91.25787 27556 ft 388 kts 257°
2026-05-07 04:35 34.81800 -91.29025 27808 ft 389 kts 257°
2026-05-07 04:35 34.81294 -91.32259 28045 ft 390 kts 257°
2026-05-07 04:36 34.80783 -91.35511 28261 ft 392 kts 257°
2026-05-07 04:36 34.80271 -91.38766 28531 ft 391 kts 257°
2026-05-07 04:36 34.79768 -91.41973 29193 ft 377 kts 257°
2026-05-07 04:36 34.79296 -91.44990 29915 ft 354 kts 257°
2026-05-07 04:37 34.78843 -91.47857 30624 ft 345 kts 257°
2026-05-07 04:37 34.78390 -91.50709 31125 ft 342 kts 257°
2026-05-07 04:37 34.77939 -91.53543 31495 ft 341 kts 257°
2026-05-07 04:37 34.77486 -91.56383 31751 ft 342 kts 257°
2026-05-07 04:38 34.77033 -91.59226 31988 ft 344 kts 257°
2026-05-07 04:38 34.76575 -91.62097 32073 ft 348 kts 257°
2026-05-07 04:38 34.75635 -91.67972 32068 ft 359 kts 257°
2026-05-07 04:39 34.74710 -91.73980 32065 ft 363 kts 259°
2026-05-07 04:39 34.74652 -91.80149 32069 ft 370 kts 271°
2026-05-07 04:40 34.75637 -91.86341 32078 ft 374 kts 275°
2026-05-07 04:40 34.76805 -91.92518 32077 ft 375 kts 276°
2026-05-07 04:41 34.77980 -91.98679 32086 ft 374 kts 276°
2026-05-07 04:41 34.79122 -92.04820 32085 ft 373 kts 275°
2026-05-07 04:42 34.80248 -92.10972 32086 ft 370 kts 274°
2026-05-07 04:42 34.80719 -92.16079 32086 ft 363 kts 266°
2026-05-07 04:43 34.80365 -92.22159 32086 ft 359 kts 261°
2026-05-07 04:43 34.79774 -92.28198 32086 ft 359 kts 260°
2026-05-07 04:44 34.79146 -92.34232 32086 ft 359 kts 260°
2026-05-07 04:44 34.78524 -92.40274 32096 ft 363 kts 260°
2026-05-07 04:45 34.77899 -92.46431 32098 ft 368 kts 260°
2026-05-07 04:45 34.77276 -92.52608 32094 ft 367 kts 260°
2026-05-07 04:46 34.76654 -92.58769 32095 ft 367 kts 260°
2026-05-07 04:46 34.76030 -92.64929 32096 ft 367 kts 260°
2026-05-07 04:47 34.75398 -92.71087 32096 ft 367 kts 260°
2026-05-07 04:47 34.74761 -92.77240 32095 ft 366 kts 260°
2026-05-07 04:48 34.74132 -92.83338 32101 ft 365 kts 260°
2026-05-07 04:48 34.73517 -92.89246 32097 ft 365 kts 260°
2026-05-07 04:49 34.72877 -92.95377 32106 ft 366 kts 260°
2026-05-07 04:49 34.72235 -93.01516 32101 ft 365 kts 260°
2026-05-07 04:50 34.71590 -93.07639 32103 ft 365 kts 260°
2026-05-07 04:50 34.70941 -93.13754 32099 ft 365 kts 260°
2026-05-07 04:51 34.70286 -93.19861 32095 ft 364 kts 260°
2026-05-07 04:51 34.69631 -93.25965 32094 ft 364 kts 259°
2026-05-07 04:52 34.68974 -93.32068 32095 ft 364 kts 259°
2026-05-07 04:52 34.68314 -93.38181 32086 ft 364 kts 259°
2026-05-07 04:53 34.67647 -93.44289 32086 ft 365 kts 259°
2026-05-07 04:53 34.66985 -93.50360 32088 ft 365 kts 259°
2026-05-07 04:54 34.66316 -93.56481 32077 ft 365 kts 259°
2026-05-07 04:54 34.65643 -93.62583 32077 ft 364 kts 259°
2026-05-07 04:55 34.64965 -93.68683 32078 ft 364 kts 259°
2026-05-07 04:55 34.64283 -93.74788 32077 ft 365 kts 259°
2026-05-07 04:56 34.63601 -93.80888 32086 ft 365 kts 259°
2026-05-07 04:56 34.62913 -93.87001 32090 ft 365 kts 259°
2026-05-07 04:57 34.62226 -93.93129 32087 ft 366 kts 259°
2026-05-07 04:57 34.61531 -93.99250 32095 ft 366 kts 259°
2026-05-07 04:58 34.60842 -94.05333 32096 ft 365 kts 259°
2026-05-07 04:58 34.60144 -94.11434 32094 ft 364 kts 259°
2026-05-07 04:59 34.59440 -94.17535 32094 ft 364 kts 259°
2026-05-07 04:59 34.58737 -94.23621 32094 ft 364 kts 259°
2026-05-07 05:00 34.58030 -94.29721 32096 ft 364 kts 259°
2026-05-07 05:00 34.57326 -94.35770 32094 ft 364 kts 259°
2026-05-07 05:01 34.56615 -94.41858 32094 ft 364 kts 259°
2026-05-07 05:01 34.55899 -94.47936 32095 ft 364 kts 259°
2026-05-07 05:02 34.55181 -94.54019 32104 ft 363 kts 259°
2026-05-07 05:02 34.54462 -94.60086 32101 ft 364 kts 259°
2026-05-07 05:03 34.53741 -94.66158 32101 ft 364 kts 259°
2026-05-07 05:03 34.53013 -94.72233 32118 ft 364 kts 258°
2026-05-07 05:04 34.52284 -94.78298 32112 ft 363 kts 258°
2026-05-07 05:04 34.51548 -94.84365 32104 ft 363 kts 258°
2026-05-07 05:05 34.50822 -94.90380 32122 ft 363 kts 258°
2026-05-07 05:05 34.50090 -94.96424 32133 ft 362 kts 259°
2026-05-07 05:06 34.49355 -95.02456 32120 ft 362 kts 258°
2026-05-07 05:06 34.48610 -95.08500 32125 ft 363 kts 258°
2026-05-07 05:07 34.47864 -95.14538 32127 ft 363 kts 258°
2026-05-07 05:07 34.47115 -95.20593 32119 ft 363 kts 258°
2026-05-07 05:08 34.46364 -95.26635 32118 ft 363 kts 258°
2026-05-07 05:08 34.45610 -95.32686 32126 ft 363 kts 258°
2026-05-07 05:09 34.44860 -95.38689 32131 ft 363 kts 258°
2026-05-07 05:09 34.44101 -95.44736 32119 ft 364 kts 258°
2026-05-07 05:10 34.43335 -95.50807 32122 ft 365 kts 258°
2026-05-07 05:10 34.42567 -95.56886 32130 ft 365 kts 258°
2026-05-07 05:11 34.41796 -95.62953 32130 ft 365 kts 258°
2026-05-07 05:11 34.41019 -95.69027 32134 ft 364 kts 258°
2026-05-07 05:12 34.40240 -95.75094 32135 ft 365 kts 258°
2026-05-07 05:12 34.39463 -95.81123 32140 ft 365 kts 258°
2026-05-07 05:13 34.38676 -95.87205 32133 ft 365 kts 258°
2026-05-07 05:13 34.37888 -95.93274 32126 ft 365 kts 258°
2026-05-07 05:14 34.37093 -95.99348 32136 ft 366 kts 258°
2026-05-07 05:14 34.36298 -96.05436 32127 ft 366 kts 258°
2026-05-07 05:15 34.35500 -96.11533 32142 ft 366 kts 258°
2026-05-07 05:15 34.34695 -96.17619 32137 ft 366 kts 258°
2026-05-07 05:16 34.33896 -96.23656 32142 ft 365 kts 258°
2026-05-07 05:16 34.33090 -96.29718 32138 ft 365 kts 257°
2026-05-07 05:17 34.32281 -96.35793 32138 ft 366 kts 257°
2026-05-07 05:17 34.31469 -96.41856 32139 ft 365 kts 257°
2026-05-07 05:18 34.30649 -96.47923 32139 ft 365 kts 257°
2026-05-07 05:18 34.29831 -96.53973 32143 ft 364 kts 257°
2026-05-07 05:19 34.29013 -96.60020 32138 ft 364 kts 257°
2026-05-07 05:19 34.28192 -96.66059 32134 ft 364 kts 257°
2026-05-07 05:20 34.27366 -96.72097 32127 ft 364 kts 257°
2026-05-07 05:20 34.26546 -96.78081 32136 ft 363 kts 257°
2026-05-07 05:21 34.25305 -96.87101 32123 ft 362 kts 257°
2026-05-07 05:22 34.24473 -96.93104 32118 ft 361 kts 257°
2026-05-07 05:22 34.23641 -96.99088 32128 ft 361 kts 257°
2026-05-07 05:23 34.22809 -97.05072 32122 ft 361 kts 257°
2026-05-07 05:23 34.21970 -97.11061 32131 ft 361 kts 257°
2026-05-07 05:24 34.21132 -97.17051 32121 ft 362 kts 257°
2026-05-07 05:24 34.20365 -97.23068 32118 ft 362 kts 257°
2026-05-07 05:25 34.19629 -97.29087 32118 ft 363 kts 257°
2026-05-07 05:25 34.18894 -97.35072 32123 ft 362 kts 257°
2026-05-07 05:26 34.18145 -97.41089 32131 ft 362 kts 257°
2026-05-07 05:26 34.17387 -97.47113 32121 ft 363 kts 257°
2026-05-07 05:27 34.16627 -97.53140 32119 ft 363 kts 257°
2026-05-07 05:27 34.15992 -97.58151 32127 ft 363 kts 257°
2026-05-07 05:28 34.15097 -97.65192 32128 ft 363 kts 257°
2026-05-07 05:28 34.14330 -97.71181 32140 ft 363 kts 257°
2026-05-07 05:29 34.13558 -97.77209 32138 ft 363 kts 257°
2026-05-07 05:29 34.12785 -97.83233 32137 ft 363 kts 257°
2026-05-07 05:30 34.12134 -97.88280 32138 ft 363 kts 257°
2026-05-07 05:30 34.11357 -97.94268 32145 ft 363 kts 257°
2026-05-07 05:31 34.10571 -98.00293 32148 ft 363 kts 257°
2026-05-07 05:31 34.09785 -98.06316 32151 ft 363 kts 257°
2026-05-07 05:32 34.08996 -98.12340 32148 ft 363 kts 257°
2026-05-07 05:32 34.08203 -98.18357 32139 ft 363 kts 257°
2026-05-07 05:33 34.07408 -98.24378 32138 ft 363 kts 257°
2026-05-07 05:33 34.06609 -98.30411 32144 ft 363 kts 257°
2026-05-07 05:34 34.05809 -98.36392 32138 ft 363 kts 256°
2026-05-07 05:34 34.05004 -98.42415 32131 ft 363 kts 257°
2026-05-07 05:35 34.04198 -98.48423 32128 ft 363 kts 256°
2026-05-07 05:35 34.03389 -98.54434 32126 ft 363 kts 256°
2026-05-07 05:36 34.02576 -98.60435 32127 ft 363 kts 256°
2026-05-07 05:36 34.01762 -98.66432 32129 ft 363 kts 257°
2026-05-07 05:37 34.00948 -98.72398 32129 ft 363 kts 257°
2026-05-07 05:37 34.00127 -98.78403 32127 ft 364 kts 257°
2026-05-07 05:38 33.99300 -98.84432 32136 ft 366 kts 256°
2026-05-07 05:38 33.98462 -98.90514 32134 ft 369 kts 256°
2026-05-07 05:39 33.97617 -98.96618 32136 ft 370 kts 256°
2026-05-07 05:39 33.96768 -99.02738 32146 ft 370 kts 256°
2026-05-07 05:40 33.95919 -99.08829 32148 ft 371 kts 256°
2026-05-07 05:40 33.95063 -99.14950 32156 ft 371 kts 256°
2026-05-07 05:41 33.94203 -99.21080 32159 ft 371 kts 256°
2026-05-07 05:41 33.93337 -99.27216 32157 ft 372 kts 256°
2026-05-07 05:42 33.92470 -99.33349 32166 ft 372 kts 256°
2026-05-07 05:42 33.91599 -99.39489 32168 ft 372 kts 256°
2026-05-07 05:43 33.90723 -99.45618 32167 ft 371 kts 256°
2026-05-07 05:43 33.89846 -99.51752 32166 ft 371 kts 256°
2026-05-07 05:44 33.88972 -99.57844 32166 ft 371 kts 256°
2026-05-07 05:44 33.88089 -99.63974 32166 ft 371 kts 256°
2026-05-07 05:45 33.87204 -99.70090 32167 ft 371 kts 256°
2026-05-07 05:45 33.86317 -99.76202 32167 ft 371 kts 256°
2026-05-07 05:46 33.85427 -99.82314 32166 ft 371 kts 256°
2026-05-07 05:46 33.84534 -99.88424 32168 ft 371 kts 256°
2026-05-07 05:47 33.83638 -99.94541 32168 ft 371 kts 256°
2026-05-07 05:47 33.82744 -100.00610 32168 ft 371 kts 256°
2026-05-07 05:48 33.81844 -100.06715 32167 ft 371 kts 256°
2026-05-07 05:48 33.80938 -100.12822 32168 ft 371 kts 256°
2026-05-07 05:49 33.80029 -100.18923 32156 ft 371 kts 256°
2026-05-07 05:49 33.79117 -100.25022 32157 ft 370 kts 256°
2026-05-07 05:50 33.78209 -100.31125 32157 ft 371 kts 257°
2026-05-07 05:50 33.78166 -100.37404 32158 ft 380 kts 267°
2026-05-07 05:51 33.78643 -100.43743 32158 ft 381 kts 268°
2026-05-07 05:51 33.79146 -100.50092 32167 ft 381 kts 268°
2026-05-07 05:52 33.79647 -100.56436 32168 ft 381 kts 268°
2026-05-07 05:52 33.80144 -100.62783 32192 ft 381 kts 268°
2026-05-07 05:53 33.80637 -100.69124 32186 ft 381 kts 268°
2026-05-07 05:53 33.81128 -100.75476 32195 ft 382 kts 268°
2026-05-07 05:54 33.81617 -100.81826 32086 ft 380 kts 268°
2026-05-07 05:54 33.81859 -100.84988 31836 ft 378 kts 268°
2026-05-07 05:54 33.82100 -100.88084 31691 ft 365 kts 268°
2026-05-07 05:54 33.82333 -100.91081 31144 ft 359 kts 268°
2026-05-07 05:55 33.82557 -100.94097 30199 ft 364 kts 268°
2026-05-07 05:55 33.82778 -100.97095 29429 ft 364 kts 268°
2026-05-07 05:55 33.83006 -101.00112 28822 ft 360 kts 269°
2026-05-07 05:55 33.83233 -101.03094 28247 ft 355 kts 269°
2026-05-07 05:56 33.83454 -101.06043 27702 ft 350 kts 269°
2026-05-07 05:56 33.83669 -101.08941 27173 ft 346 kts 269°
2026-05-07 05:56 33.83881 -101.11800 26647 ft 341 kts 269°
2026-05-07 05:56 33.84089 -101.14625 26127 ft 337 kts 269°
2026-05-07 05:57 33.84294 -101.17414 25606 ft 333 kts 269°
2026-05-07 05:57 33.84497 -101.20180 25131 ft 329 kts 269°
2026-05-07 05:57 33.84696 -101.22903 24634 ft 325 kts 269°
2026-05-07 05:57 33.84893 -101.25603 24141 ft 322 kts 269°
2026-05-07 05:58 33.85087 -101.28276 23645 ft 320 kts 269°
2026-05-07 05:58 33.85280 -101.30932 23170 ft 318 kts 270°
2026-05-07 05:58 33.85472 -101.33568 22707 ft 316 kts 270°
2026-05-07 05:58 33.85659 -101.36167 22209 ft 315 kts 270°
2026-05-07 05:59 33.85846 -101.38790 21693 ft 314 kts 270°
2026-05-07 05:59 33.86034 -101.41407 21212 ft 313 kts 270°
2026-05-07 05:59 33.86220 -101.44005 20737 ft 311 kts 270°
2026-05-07 05:59 33.86391 -101.46407 20273 ft 310 kts 271°
2026-05-07 06:00 33.86574 -101.48991 19755 ft 309 kts 271°
2026-05-07 06:00 33.86756 -101.51564 19263 ft 308 kts 271°
2026-05-07 06:00 33.86937 -101.54123 18770 ft 306 kts 271°
2026-05-07 06:00 33.87118 -101.56681 18258 ft 306 kts 272°
2026-05-07 06:01 33.87295 -101.59221 17731 ft 305 kts 272°
2026-05-07 06:01 33.87473 -101.61764 17221 ft 304 kts 272°
2026-05-07 06:01 33.87650 -101.64289 16734 ft 303 kts 272°
2026-05-07 06:01 33.87825 -101.66808 16212 ft 302 kts 272°
2026-05-07 06:02 33.87998 -101.69329 15690 ft 302 kts 272°
2026-05-07 06:02 33.88173 -101.71842 15188 ft 301 kts 273°
2026-05-07 06:02 33.88350 -101.74347 14694 ft 300 kts 273°
2026-05-07 06:02 33.88525 -101.76849 14167 ft 300 kts 273°
2026-05-07 06:03 33.88694 -101.79358 13623 ft 301 kts 273°
2026-05-07 06:03 33.88862 -101.81865 13104 ft 300 kts 273°
2026-05-07 06:03 33.89034 -101.84359 12597 ft 299 kts 273°
2026-05-07 06:03 33.89207 -101.86852 12098 ft 298 kts 273°
2026-05-07 06:04 33.89373 -101.89247 11788 ft 281 kts 273°
2026-05-07 06:04 33.89527 -101.91509 11449 ft 263 kts 272°
2026-05-07 06:04 33.89671 -101.93683 10869 ft 261 kts 273°
2026-05-07 06:04 33.89817 -101.95872 10409 ft 264 kts 272°
2026-05-07 06:05 33.89966 -101.98102 9868 ft 270 kts 272°
2026-05-07 06:05 33.90117 -102.00375 9355 ft 276 kts 272°
2026-05-07 06:05 33.90271 -102.02684 9067 ft 275 kts 272°
2026-05-07 06:05 33.90394 -102.04989 8864 ft 277 kts 266°
2026-05-07 06:06 33.90112 -102.07281 8671 ft 277 kts 249°
2026-05-07 06:06 33.89171 -102.09271 8473 ft 273 kts 224°
2026-05-07 06:06 33.87634 -102.10535 8266 ft 267 kts 197°
2026-05-07 06:06 33.85829 -102.10777 8068 ft 261 kts 170°
2026-05-07 06:07 33.84101 -102.10272 7973 ft 250 kts 161°
2026-05-07 06:07 33.82477 -102.09648 7859 ft 240 kts 160°
2026-05-07 06:07 33.80932 -102.09046 7727 ft 228 kts 160°
2026-05-07 06:07 33.79427 -102.08460 7319 ft 228 kts 160°
2026-05-07 06:08 33.77915 -102.07881 6948 ft 227 kts 160°
2026-05-07 06:08 33.76417 -102.07315 6613 ft 225 kts 159°
2026-05-07 06:08 33.74934 -102.06760 6318 ft 221 kts 159°
2026-05-07 06:08 33.73461 -102.06213 6043 ft 221 kts 159°
2026-05-07 06:09 33.71997 -102.05670 5775 ft 219 kts 159°
2026-05-07 06:09 33.70538 -102.05131 5619 ft 220 kts 159°
2026-05-07 06:09 33.69091 -102.04597 5493 ft 218 kts 159°
2026-05-07 06:09 33.67726 -102.03936 5347 ft 205 kts 143°
2026-05-07 06:10 33.66665 -102.02878 5244 ft 194 kts 125°
2026-05-07 06:10 33.66181 -102.01421 5139 ft 189 kts 97°
2026-05-07 06:10 33.66107 -101.99841 4964 ft 190 kts 90°
2026-05-07 06:10 33.66112 -101.98245 4739 ft 191 kts 89°
2026-05-07 06:11 33.66129 -101.96672 4502 ft 183 kts 88°
2026-05-07 06:11 33.66143 -101.95164 4308 ft 180 kts 88°
2026-05-07 06:11 33.66156 -101.93662 4159 ft 180 kts 88°
2026-05-07 06:11 33.66166 -101.92165 3998 ft 180 kts 88°
2026-05-07 06:12 33.66175 -101.90680 3843 ft 172 kts 88°
2026-05-07 06:12 33.66183 -101.89322 3820 ft 157 kts 88°
2026-05-07 06:12 33.66190 -101.88053 3818 ft 147 kts 88°
2026-05-07 06:12 33.66192 -101.86862 3812 ft 139 kts 89°
2026-05-07 06:13 33.66191 -101.85713 3742 ft 138 kts 88°
2026-05-07 06:13 33.66205 -101.84562 3673 ft 138 kts 88°
2026-05-07 06:13 33.66214 -101.83801 3571 ft 138 kts 88°
2026-05-07 06:13 33.66220 -101.82646 3411 ft 140 kts 88°
2026-05-07 06:14 33.66230 -101.81148 3298 ft 117 kts 89°
2026-05-07 06:14 33.66231 -101.80386 3300 ft 63 kts 89°
2026-05-07 06:14 33.66226 -101.80122 3301 ft 11 kts 124°
2026-05-07 06:14 33.66188 -101.80093 3301 ft 12 kts 159°
2026-05-07 06:15 33.66075 -101.80096 3299 ft 20 kts 203°
2026-05-07 06:15 33.66043 -101.80354 3299 ft 30 kts 270°
2026-05-07 06:15 33.66041 -101.80533 3299 ft 35 kts 269°
2026-05-07 06:15 33.66038 -101.80974 3299 ft 43 kts 270°
2026-05-07 06:16 33.66037 -101.81189 3299 ft 27 kts 269°
2026-05-07 06:16 33.66035 -101.81306 3299 ft 0 kts 269°
2026-05-07 06:16 33.66035 -101.81335 3299 ft 11 kts 269°
2026-05-07 06:16 33.66035 -101.81502 3299 ft 28 kts 270°
2026-05-07 06:17 33.66034 -101.81792 3299 ft 40 kts 270°
2026-05-07 06:17 33.66033 -101.82149 3299 ft 44 kts 270°
2026-05-07 06:17 33.66030 -101.82527 3299 ft 41 kts 269°
2026-05-07 06:17 33.66029 -101.82850 3296 ft 38 kts 270°
2026-05-07 06:18 33.66027 -101.83091 3299 ft 10 kts 290°
2026-05-07 06:18 33.66090 -101.83116 3299 ft 15 kts 356°
2026-05-07 06:18 33.66231 -101.83118 3299 ft 26 kts
2026-05-07 06:18 33.66440 -101.83117 3299 ft 35 kts
2026-05-07 06:19 33.66712 -101.83117 3299 ft 42 kts 359°
2026-05-07 06:19 33.67008 -101.83122 3299 ft 36 kts 359°
2026-05-07 06:19 33.67239 -101.83126 3299 ft 20 kts
2026-05-07 06:19 33.67340 -101.83125 3299 ft 13 kts
2026-05-07 06:20 33.67400 -101.83169 3299 ft 9 kts 290°
2026-05-07 06:20 33.67401 -101.83240 3299 ft 8 kts 262°
2026-05-07 06:20 33.67371 -101.83269 3299 ft 4 kts 190°
2026-05-07 06:20 33.67349 -101.83278 3299 ft 3 kts 215°
2026-05-07 06:21 33.67346 -101.83302 3299 ft 4 kts 267°
2026-05-07 06:21 33.67345 -101.83326 3299 ft 2 kts 268°
2026-05-07 06:21 33.67345 -101.83339 3299 ft 0 kts 268°